4XARY LLHZ-LLHA

Flight info

Callsign 4XARY
Flight time N/A
Altitude 800
Route CVFR SFAIM
Aircraft C152/L-VD/A

Departure

Time 2026-04-24 13:49
Airport Herzliya Airport (LLHZ)

Arrival

Time N/A
Airport Uri Michaeli Haifa International Airport (LLHA)
Time Latitude Longitude Altitude Speed Heading
2026-04-24 13:42 32.18081 34.83123 98 ft 0 kts 201°
2026-04-24 13:43 32.17939 34.83581 108 ft 0 kts 20°
2026-04-24 13:46 32.17946 34.83620 110 ft 5 kts 106°
2026-04-24 13:46 32.17933 34.83665 112 ft 7 kts 110°
2026-04-24 13:47 32.17921 34.83706 114 ft 3 kts 108°
2026-04-24 13:47 32.17912 34.83737 115 ft 11 kts 108°
2026-04-24 13:47 32.17891 34.83811 119 ft 7 kts 109°
2026-04-24 13:47 32.17880 34.83846 120 ft 0 kts 101°
2026-04-24 13:48 32.17880 34.83853 121 ft 4 kts 71°
2026-04-24 13:48 32.17908 34.83857 122 ft 8 kts 320°
2026-04-24 13:48 32.17960 34.83696 115 ft 44 kts 289°
2026-04-24 13:48 32.18111 34.83187 135 ft 77 kts 289°
2026-04-24 13:49 32.18328 34.82650 348 ft 68 kts 321°
2026-04-24 13:49 32.18797 34.82672 449 ft 79 kts 21°
2026-04-24 13:49 32.19298 34.82931 625 ft 77 kts 22°
2026-04-24 13:49 32.19810 34.83128 731 ft 82 kts
2026-04-24 13:50 32.20374 34.82925 738 ft 92 kts 332°
2026-04-24 13:50 32.20947 34.82617 818 ft 90 kts 340°
2026-04-24 13:50 32.21544 34.82368 905 ft 92 kts 329°
2026-04-24 13:50 32.21861 34.81800 1069 ft 85 kts 281°
2026-04-24 13:51 32.22096 34.81152 1175 ft 85 kts 317°
2026-04-24 13:51 32.22679 34.81001 1230 ft 94 kts 10°
2026-04-24 13:51 32.23316 34.81170 1302 ft 95 kts 12°
2026-04-24 13:51 32.23980 34.81358 1311 ft 99 kts 14°
2026-04-24 13:52 32.24636 34.81552 1379 ft 96 kts 13°
2026-04-24 13:52 32.25332 34.81745 1272 ft 103 kts 13°
2026-04-24 13:52 32.25991 34.81943 1381 ft 96 kts